Wilmington, NC

12:45 PM EST on February 14, 2016 (GMT -0500)
Wilmington International

Weather History for KILM - September, 2013

Change the Weather History Date:

Monday, September 16, 2013

  Actual Average Record
Temperature  
Mean Temperature 78 °F 75 °F  
Max Temperature 89 °F 84 °F 95 °F (1956)
Min Temperature 67 °F 66 °F 55 °F (2000)
Degree Days  
Heating Degree Days 0 0  
Month to date heating degree days 0 0  
Since 1 July heating degree days 0 0  
Cooling Degree Days 13 10  
Month to date cooling degree days 217 186  
Year to date cooling degree days 1707 1809  
Growing Degree Days 28 (Base 50)    
Moisture  
Dew Point 70 °F    
Average Humidity 75    
Maximum Humidity 97    
Minimum Humidity 53    
Precipitation  
Precipitation 0.18 in 0.28 in 4.42 in (1924)
Month to date precipitation 0.29 4.37  
Year to date precipitation 42.78 43.34  
Sea Level Pressure  
Sea Level Pressure 30.09 in    
Wind  
Wind Speed 3 mph (West)    
Max Wind Speed 22 mph    
Max Gust Speed 29 mph    
Visibility 9 miles    
Events Rain , Thunderstorm    
T = Trace of Precipitation, MM = Missing Value Source: NWS Daily Summary

Daily Weather History Graph

Daily Weather History Graph

Search for Another Location

Airport or City:

Trip Planner

Search our weather history database for the weather conditions in past years. The results will help you decide how hot, cold, wet, or windy it might be!

Date:

Astronomy

Sep. 16, 2013 Rise Set
Actual Time 6:55 AM EDT 7:16 PM EDT
Civil Twilight 6:30 AM EDT 7:41 PM EDT
Nautical Twilight 6:01 AM EDT 8:10 PM EDT
Astronomical Twilight 5:31 AM EDT 8:40 PM EDT
Moon 5:19 PM EDT (9/16) 3:46 AM EDT (9/16)
Length of Visible Light 13h 11m
Length of Day
12h 20m
Waxing Gibbous, 90% of the Moon is Illuminated
Sep 16
Waxing Gibbous
Sep 19
Full
Sep 26
Last Quarter
Oct 4
New
Oct 11
First Quarter

Hourly Weather History & Observations

Time (EDT) Temp. Heat Index Dew Point Humidity Pressure Visibility Wind Dir Wind Speed Gust Speed Precip Events Conditions
12:53 AM 71.1 °F - 69.1 °F 93% 30.14 in 10.0 mi Calm Calm - 0.02 in   Clear
1:53 AM 70.0 °F - 68.0 °F 93% 30.14 in 8.0 mi Calm Calm - 0.01 in   Clear
2:53 AM 69.1 °F - 66.9 °F 93% 30.13 in 8.0 mi Calm Calm - 0.02 in   Clear
3:53 AM 68.0 °F - 66.9 °F 96% 30.12 in 9.0 mi Calm Calm - 0.01 in   Clear
4:53 AM 69.1 °F - 66.9 °F 93% 30.11 in 10.0 mi Calm Calm - 0.01 in   Mostly Cloudy
5:53 AM 68.0 °F - 66.0 °F 93% 30.12 in 10.0 mi Calm Calm - 0.01 in   Clear
6:53 AM 68.0 °F - 66.0 °F 93% 30.12 in 10.0 mi Calm Calm - N/A   Partly Cloudy
7:53 AM 71.1 °F - 68.0 °F 90% 30.12 in 10.0 mi Calm Calm - N/A   Clear
8:53 AM 79.0 °F - 73.0 °F 82% 30.13 in 10.0 mi Calm Calm - N/A   Scattered Clouds
9:53 AM 82.9 °F 88.0 °F 72.0 °F 69% 30.12 in 10.0 mi Variable 5.8 mph - N/A   Clear
10:53 AM 86.0 °F 91.5 °F 71.1 °F 61% 30.12 in 10.0 mi South 6.9 mph - N/A   Scattered Clouds
11:53 AM 86.0 °F 90.7 °F 70.0 °F 59% 30.11 in 10.0 mi SW 3.5 mph - N/A   Mostly Cloudy
12:53 PM 87.1 °F 90.6 °F 68.0 °F 53% 30.08 in 10.0 mi West 9.2 mph - N/A   Mostly Cloudy
1:53 PM 80.1 °F 83.2 °F 70.0 °F 71% 30.07 in 10.0 mi SW 9.2 mph - 0.00 in Rain Light Rain
2:53 PM 86.0 °F 92.2 °F 72.0 °F 63% 30.04 in 10.0 mi South 9.2 mph - 0.00 in   Mostly Cloudy
3:14 PM 84.2 °F 89.6 °F 71.6 °F 66% 30.05 in 10.0 mi SW 6.9 mph - N/A Thunderstorm Mostly Cloudy
3:39 PM 78.8 °F - 68.0 °F 69% 30.04 in 10.0 mi NE 11.5 mph - N/A   Overcast
3:53 PM 79.0 °F - 69.1 °F 72% 30.05 in 10.0 mi NNE 8.1 mph - N/A   Mostly Cloudy
4:33 PM 75.2 °F - 69.8 °F 83% 30.04 in 10.0 mi East 4.6 mph - 0.02 in Thunderstorm Overcast
4:53 PM 73.9 °F - 71.1 °F 91% 30.04 in 10.0 mi Calm Calm - 0.02 in   Overcast
5:01 PM 73.4 °F - 71.6 °F 94% 30.05 in 7.0 mi SSW 4.6 mph - 0.01 in Rain , Thunderstorm Rain
5:17 PM 73.4 °F - 71.6 °F 94% 30.04 in 2.5 mi Calm Calm - 0.07 in Rain , Thunderstorm Heavy Rain
5:27 PM 75.2 °F - 69.8 °F 83% 30.04 in 9.0 mi Calm Calm - 0.08 in Rain Light Rain
5:38 PM 75.2 °F - 71.6 °F 89% 30.04 in 10.0 mi Calm Calm - 0.08 in Thunderstorm Mostly Cloudy
5:53 PM 75.0 °F - 71.1 °F 87% 30.05 in 10.0 mi Calm Calm - 0.08 in   Mostly Cloudy
6:12 PM 75.2 °F - 71.6 °F 89% 30.07 in 10.0 mi North 4.6 mph - N/A Thunderstorm Mostly Cloudy
6:53 PM 75.0 °F - 72.0 °F 90% 30.07 in 10.0 mi South 3.5 mph - 0.02 in Thunderstorm Overcast
7:01 PM 75.2 °F - 71.6 °F 89% 30.07 in 10.0 mi Calm Calm - N/A   Mostly Cloudy
7:41 PM 73.4 °F - 71.6 °F 94% 30.07 in 9.0 mi SW 3.5 mph - N/A   Partly Cloudy
7:53 PM 73.9 °F - 72.0 °F 93% 30.07 in 7.0 mi Calm Calm - N/A   Clear
8:53 PM 73.0 °F - 71.1 °F 93% 30.09 in 5.0 mi Calm Calm - N/A   Clear
9:14 PM 73.4 °F - 71.6 °F 94% 30.09 in 1.8 mi Calm Calm - N/A   Clear
9:25 PM 71.6 °F - 71.6 °F 100% 30.09 in 3.0 mi NW 3.5 mph - N/A   Clear
9:53 PM 72.0 °F - 70.0 °F 93% 30.09 in 5.0 mi NW 3.5 mph - N/A   Clear
10:53 PM 71.1 °F - 70.0 °F 96% 30.11 in 9.0 mi NW 3.5 mph - N/A   Clear
11:06 PM 71.6 °F - 69.8 °F 94% 30.12 in 6.0 mi North 10.4 mph - N/A   Scattered Clouds
11:53 PM 71.1 °F - 66.9 °F 87% 30.13 in 10.0 mi NNE 9.2 mph - N/A   Scattered Clouds